#timestamp,LO_Frequency,Hit,StdDev 
1658289615.4,286047011.9,Y
1658289635.2,286047002.7,P
1658289655.0,286047002.4,N
1658289655.9,286047002.4,N
1658289675.8,286047002.8,N
1658289695.6,286046999.9,N
1658289715.4,286047000.2,N
1658289735.3,286046999.9,N
1658289755.1,286047000.2,N
1658289775.9,286047000.3,N
1658289795.7,286047000.5,N
1658289815.5,286046999.8,N
1658289835.4,286047000.1,N
1658289855.2,286047000.0,N
1658289875.0,286047000.0,N
1658289875.9,286047000.0,N
1658289895.8,286046999.8,N
1658289915.6,286047000.6,N
1658289935.5,286047000.8,N
1658289955.3,286047000.8,N
1658289975.1,286046998.2,N
1658289995.9,286046998.5,N
1658290015.7,286047001.2,N
1658290035.6,286047001.1,N
1658290055.4,286046998.5,N
1658290075.2,286046998.1,N
1658290095.1,286046998.2,N
1658290126.0,286046998.6,E
1658290135.0,286047001.1,N
1658290135.9,286047001.1,P
1658290155.8,286047000.1,P
1658290175.6,286046999.9,N
1658290195.4,286047000.2,N
1658290215.3,286047000.5,N
1658290235.1,286046999.9,N
1658290255.9,286046999.8,N
1658290275.7,286047002.2,Y
1658290295.5,286046999.8,P
1658290315.4,286046999.7,N
1658290335.2,286047000.3,N
1658290355.1,286047000.8,N
1658290356.0,286047000.8,N
1658290375.8,286047000.8,N
1658290395.6,286047001.0,N
1658290415.5,286047001.1,N
1658290435.3,286047000.3,N
1658290455.1,286047001.1,N
1658290475.9,286047000.0,N
1658290495.7,286047000.7,N
1658290515.6,286047000.7,N
1658290535.4,286046998.4,Y
1658290555.2,286046998.1,P
1658290575.1,286046998.7,N
1658290576.0,286046998.7,N
1658290595.8,286046998.5,N
1658290615.7,286046998.6,N
1658290635.5,286046998.6,N
1658290655.3,286046998.9,N
1658290675.2,286046999.3,N
1658290695.9,286046999.2,N
1658290715.7,286046999.6,N
1658290735.6,286046999.2,N
1658290755.4,286046999.1,N
1658290775.3,286046996.5,Y
1658290795.1,286046999.5,P
1658290796.0,286046999.5,N
1658290815.8,286046999.2,P
1658290835.7,286046999.5,N
1658290855.5,286046998.8,Y
1658290875.3,286046998.1,P
1658290895.2,286046998.6,N
1658290915.0,286047001.2,N
1658290915.9,286047001.2,N
1658290935.8,286046998.7,N
1658290955.6,286047000.6,N
1658290975.4,286047000.8,N
1658290995.3,286047000.5,N
1658291015.1,286047000.5,N
1658291035.8,286046998.5,N
1658291055.7,286047000.8,N
1658291075.5,286047001.0,N
1658291095.4,286047001.0,N
1658291115.2,286047001.2,N
1658291135.0,286046999.1,N
1658291135.9,286046999.1,N
1658291155.8,286046996.9,N
1658291175.6,286046999.3,N
1658291195.5,286046999.3,N
1658291215.3,286046996.5,N
1658291235.1,286046999.2,N
1658291255.9,286046999.3,N
1658291275.7,286046999.3,N
1658291295.5,286046996.6,N
1658291315.4,286046997.3,N
1658291335.2,286046999.6,N
1658291355.1,286046999.6,N
1658291356.0,286046999.6,N
1658291375.8,286046999.2,N
1658291395.6,286046999.4,N
1658291415.5,286046996.5,N
1658291435.3,286046999.4,N
1658291455.1,286046998.5,N
1658291475.9,286046998.5,N
1658291495.7,286047000.7,N
1658291515.6,286047000.7,N
1658291535.4,286047001.1,N
1658291555.2,286047001.1,N
1658291575.1,286046998.1,N
1658291576.0,286046998.1,N
1658291595.8,286046998.7,N
1658291615.7,286046996.5,N
1658291635.6,286046999.1,N
1658291655.4,286046996.5,N
1658291675.2,286046996.6,N
1658291695.1,286046996.5,N
1658291696.0,286046996.5,N
1658291715.8,286046996.7,N
1658291735.7,286046997.2,N
1658291755.5,286046999.6,N
1658291775.3,286046996.9,N
1658291795.2,286046999.2,N
1658291815.9,286046999.1,N
1658291835.7,286046997.0,N
1658291855.6,286046996.5,N
1658291875.4,286046996.6,N
1658291895.3,286046997.0,N
1658291915.1,286046997.1,N
1658291916.0,286046997.1,N
1658291935.8,286046996.5,N
1658291955.7,286046998.4,N
1658291975.5,286046998.9,N
1658291995.3,286046999.4,N
1658292015.2,286046999.1,N
1658292035.0,286046999.1,N
1658292035.9,286046999.1,N
1658292055.8,286046999.1,N
1658292075.6,286046999.2,N
1658292095.4,286046998.1,N
1658292115.3,286046999.3,N
1658292135.1,286046996.6,N
1658292155.9,286046996.9,N
1658292175.7,286046996.5,N
1658292195.5,286046996.6,N
1658292215.4,286046996.6,N
1658292235.2,286046997.0,N
1658292255.0,286046999.5,N
1658292255.9,286046999.5,N
1658292275.8,286046999.3,N
1658292295.6,286046997.0,N
1658292315.5,286046997.7,N
1658292335.3,286046997.3,N
1658292355.1,286046996.8,N
1658292375.9,286046996.6,N
1658292395.7,286046999.6,N
1658292415.5,286046997.2,N
1658292435.4,286046997.4,N
1658292455.2,286046997.7,N
1658292475.1,286046994.9,Y
1658292476.0,286046994.9,P
1658292495.8,286046998.9,N
1658292515.6,286046998.1,N
1658292535.5,286047000.7,N
1658292555.3,286047001.0,N
1658292575.2,286047000.8,N
1658292595.9,286047001.1,N
1658292615.7,286047000.4,N
1658292635.6,286047000.3,N
1658292655.4,286047002.7,N
1658292675.2,286047000.9,N
1658292695.1,286047000.4,N
1658292696.0,286047000.4,N
1658292715.8,286047000.2,N
1658292735.7,286047000.6,N
1658292755.5,286047001.1,N
1658292775.3,286047001.1,N
1658292795.2,286046998.3,N
1658292815.0,286046998.4,N
1658292815.9,286046998.4,N
1658292835.7,286046998.9,N
1658292855.6,286046998.2,N
1658292875.4,286046998.5,N
1658292895.3,286046999.0,N
1658292915.1,286046998.7,N
1658292916.0,286046998.7,N
1658292935.8,286046999.0,N
1658292955.7,286046999.0,N
1658292975.5,286046998.7,N
1658292995.4,286046998.9,N
1658293015.2,286046998.7,N
1658293035.0,286046998.4,N
1658293035.9,286046998.4,N
1658293055.8,286047000.7,N
1658293075.6,286046998.5,N
1658293095.4,286046998.3,N
1658293115.3,286046998.3,N
1658293135.1,286047001.2,N
1658293155.9,286046998.4,N
1658293175.7,286047001.1,N
1658293195.5,286046998.4,N
